Satellite-Ground Cal/Val Region Overpasses Predictions

Prediction of Satellite NPP Overpassing Cal/Val Region: PacNW

Region Location: (Latitude: 10.00, Longitude: 139.50) to (Latitude: 22.70, Longitude: 165.60).

Table of predicted overpasses for the next 14.0 days since TLE Epoch: 10/2/2015
Interval Starting Time Starting Location Ending Time Ending Location
1 10/02/2015 16:04:57 ( 22.66, 144.46) 10/02/2015 16:08:32 ( 10.04, 141.46)
2 10/03/2015 03:14:01 ( 10.03, 152.00) 10/03/2015 03:17:36 ( 22.65, 149.01)
3 10/03/2015 15:45:54 ( 22.67, 149.21) 10/03/2015 15:49:29 ( 10.05, 146.22)
4 10/04/2015 02:54:59 ( 10.02, 156.76) 10/04/2015 02:58:35 ( 22.70, 153.75)
5 10/04/2015 15:26:52 ( 22.68, 153.97) 10/04/2015 15:30:27 ( 10.05, 150.98)
6 10/05/2015 02:35:56 ( 10.01, 161.52) 10/05/2015 02:39:32 ( 22.69, 158.51)
7 10/05/2015 15:07:49 ( 22.68, 158.73) 10/05/2015 15:11:25 ( 10.00, 155.72)
8 10/06/2015 02:17:45 ( 13.00, 165.59) 10/06/2015 02:20:30 ( 22.69, 163.27)
9 10/06/2015 03:58:24 ( 10.01, 140.90) 10/06/2015 04:00:06 ( 16.00, 139.51)
10 10/06/2015 14:48:47 ( 22.69, 163.49) 10/06/2015 14:52:23 ( 10.01, 160.48)
11 10/07/2015 03:39:21 ( 10.01, 145.66) 10/07/2015 03:42:57 ( 22.69, 142.65)
12 10/07/2015 14:32:53 ( 11.60, 165.60) 10/07/2015 14:33:20 ( 10.01, 165.24)
13 10/07/2015 16:11:14 ( 22.69, 142.87) 10/07/2015 16:14:50 ( 10.00, 139.86)
14 10/08/2015 03:20:19 ( 10.00, 150.41) 10/08/2015 03:23:55 ( 22.68, 147.41)
15 10/08/2015 15:52:12 ( 22.69, 147.62) 10/08/2015 15:55:48 ( 10.01, 144.62)
16 10/09/2015 03:01:17 ( 10.06, 155.16) 10/09/2015 03:04:52 ( 22.68, 152.16)
17 10/09/2015 15:33:09 ( 22.69, 152.38) 10/09/2015 15:36:45 ( 10.01, 149.37)
18 10/10/2015 02:42:15 ( 10.05, 159.91) 10/10/2015 02:45:50 ( 22.68, 156.92)
19 10/10/2015 15:14:07 ( 22.69, 157.14) 10/10/2015 15:17:43 ( 10.01, 154.13)
20 10/11/2015 02:23:13 ( 10.05, 164.67) 10/11/2015 02:26:48 ( 22.68, 161.67)
21 10/11/2015 14:55:04 ( 22.70, 161.89) 10/11/2015 14:58:40 ( 10.01, 158.88)
22 10/12/2015 03:45:39 ( 10.00, 144.06) 10/12/2015 03:49:15 ( 22.68, 141.05)
23 10/12/2015 14:37:15 ( 18.41, 165.60) 10/12/2015 14:39:38 ( 10.02, 163.64)
24 10/12/2015 16:17:32 ( 22.69, 141.27) 10/12/2015 16:19:36 ( 15.41, 139.51)
25 10/13/2015 03:26:37 ( 10.00, 148.82) 10/13/2015 03:30:13 ( 22.68, 145.81)
26 10/13/2015 15:58:29 ( 22.69, 146.03) 10/13/2015 16:02:05 ( 10.01, 143.02)
27 10/14/2015 03:07:34 ( 10.00, 153.57) 10/14/2015 03:11:10 ( 22.69, 150.57)
28 10/14/2015 15:39:27 ( 22.69, 150.78) 10/14/2015 15:43:03 ( 10.01, 147.78)
29 10/15/2015 02:48:32 ( 10.00, 158.33) 10/15/2015 02:52:08 ( 22.69, 155.32)
30 10/15/2015 15:20:24 ( 22.68, 155.54) 10/15/2015 15:24:00 ( 10.00, 152.53)


NCC Satellite Cal/Val Overpasses Prediction Service
